20040330,000023,604812,33.849030,-118.463650,15.648,33.173,NaN,NaN
20040330,000053,604843,33.850450,-118.463570,15.705,33.173,NaN,NaN
20040330,000123,604873,33.851860,-118.463520,15.736,33.172,NaN,NaN
20040330,000154,604903,33.853280,-118.463510,15.740,33.171,NaN,NaN
20040330,000223,604933,33.854710,-118.463470,15.745,33.172,NaN,NaN
20040330,000253,604963,33.856120,-118.463410,15.746,33.171,NaN,NaN
20040330,000323,604992,33.857540,-118.463340,15.725,33.171,NaN,NaN
20040330,000354,605024,33.858970,-118.463290,15.714,33.161,NaN,NaN
20040330,000424,605054,33.860440,-118.463240,15.702,33.170,NaN,NaN
20040330,000453,605083,33.861830,-118.463230,15.644,33.170,NaN,NaN
20040330,000523,605113,33.863250,-118.463170,15.612,33.171,NaN,NaN
20040330,000553,605143,33.864660,-118.463140,15.622,33.171,NaN,NaN
20040330,000625,605175,33.866140,-118.463060,15.646,33.172,NaN,NaN
20040330,000653,605203,33.867520,-118.463050,15.668,33.171,NaN,NaN
20040330,000725,605235,33.869000,-118.463000,15.665,33.172,NaN,NaN
20040330,000755,605265,33.870430,-118.462930,15.684,33.173,NaN,NaN
20040330,000825,605295,33.871850,-118.462870,15.713,33.173,NaN,NaN
20040330,000855,605324,33.873280,-118.462880,15.755,33.173,NaN,NaN
20040330,000925,605355,33.874720,-118.462810,15.804,33.173,NaN,NaN
20040330,000955,605385,33.876160,-118.462770,15.831,33.174,NaN,NaN
20040330,001025,605415,33.877610,-118.462730,15.851,33.174,NaN,NaN
20040330,001054,605444,33.879050,-118.462730,15.886,33.176,NaN,NaN
20040330,001124,605474,33.880090,-118.462660,15.985,33.176,NaN,NaN
20040330,001155,605505,33.880820,-118.462750,16.060,33.175,NaN,NaN
20040330,001225,605535,33.881210,-118.463010,16.071,33.176,NaN,NaN
20040330,001255,605565,33.881400,-118.463270,16.055,33.176,NaN,NaN
20040330,001325,605595,33.881490,-118.463480,16.037,33.176,NaN,NaN
20040330,001355,605625,33.881540,-118.463710,16.029,33.177,NaN,NaN
20040330,001425,605654,33.881570,-118.463970,16.024,33.177,NaN,NaN
20040330,001455,605685,33.881600,-118.464250,16.037,33.178,NaN,NaN
20040330,001525,605715,33.881630,-118.464530,16.070,33.177,NaN,NaN
20040330,001555,605745,33.881670,-118.464830,16.143,33.177,NaN,NaN
20040330,001624,605774,33.881710,-118.465110,16.194,33.174,NaN,NaN
20040330,001654,605804,33.881750,-118.465430,16.211,33.176,NaN,NaN
20040330,001725,605835,33.881750,-118.465750,16.205,33.174,NaN,NaN
20040330,001755,605865,33.881760,-118.466060,16.187,33.173,NaN,NaN
20040330,001825,605895,33.881770,-118.466390,16.161,33.173,NaN,NaN
20040330,001855,605925,33.881790,-118.466720,16.132,33.172,NaN,NaN
20040330,001925,605955,33.881810,-118.467050,16.089,33.171,NaN,NaN
20040330,001955,605984,33.881810,-118.467380,16.046,33.172,NaN,NaN
20040330,002025,606015,33.881830,-118.467700,16.000,33.165,NaN,NaN
20040330,002055,606045,33.881840,-118.468030,15.940,33.155,NaN,NaN
20040330,002125,606075,33.881860,-118.468350,15.870,33.171,NaN,NaN
20040330,002155,606105,33.881870,-118.468680,15.784,33.170,NaN,NaN
20040330,002225,606135,33.881880,-118.469020,15.694,33.169,NaN,NaN
20040330,002255,606164,33.881900,-118.469350,15.615,33.169,NaN,NaN
20040330,002325,606195,33.881910,-118.469680,15.546,33.169,NaN,NaN
20040330,002355,606225,33.881920,-118.470010,15.496,33.169,NaN,NaN
20040330,002425,606255,33.881930,-118.470330,15.437,33.168,NaN,NaN
20040330,002455,606285,33.881940,-118.470650,15.374,33.168,NaN,NaN
20040330,002525,606315,33.881960,-118.470980,15.394,33.171,NaN,NaN
20040330,002555,606345,33.881970,-118.471300,15.369,33.168,NaN,NaN
20040330,002625,606375,33.881980,-118.471630,15.352,33.171,NaN,NaN
20040330,002655,606405,33.881990,-118.471940,15.426,33.172,NaN,NaN
20040330,002725,606435,33.882010,-118.472260,15.529,33.173,NaN,NaN
20040330,002755,606465,33.882010,-118.472580,15.637,33.172,NaN,NaN
20040330,002825,606494,33.882020,-118.472900,15.674,33.159,NaN,NaN
20040330,002855,606525,33.882030,-118.473220,15.731,33.172,NaN,NaN
20040330,002925,606555,33.882030,-118.473540,15.782,33.170,NaN,NaN
20040330,002955,606585,33.882020,-118.473860,15.788,33.170,NaN,NaN
20040330,003025,606615,33.882050,-118.474270,15.780,33.170,NaN,NaN
20040330,003055,606645,33.882240,-118.474720,15.795,33.171,NaN,NaN
20040330,003125,606674,33.882500,-118.475230,15.835,33.171,NaN,NaN
20040330,003155,606705,33.882810,-118.475780,15.893,33.172,NaN,NaN
20040330,003225,606735,33.883110,-118.476370,15.986,33.172,NaN,NaN
20040330,003255,606765,33.883420,-118.476960,16.095,33.172,NaN,NaN
20040330,003325,606795,33.883750,-118.477550,16.178,33.171,NaN,NaN
20040330,003355,606825,33.884080,-118.478150,16.205,33.169,NaN,NaN
20040330,003425,606855,33.884390,-118.478760,16.189,33.169,NaN,NaN
20040330,003455,606885,33.884710,-118.479370,16.189,33.169,NaN,NaN
20040330,003525,606915,33.885030,-118.479970,16.211,33.169,NaN,NaN
20040330,003555,606945,33.885340,-118.480580,16.225,33.168,NaN,NaN
20040330,003625,606975,33.885670,-118.481170,16.226,33.167,NaN,NaN
20040330,003655,607004,33.885980,-118.481770,16.212,33.167,NaN,NaN
20040330,003725,607035,33.886290,-118.482370,16.192,33.167,NaN,NaN
20040330,003755,607065,33.886610,-118.482960,16.165,33.166,NaN,NaN
20040330,003825,607095,33.886920,-118.483550,16.140,33.166,NaN,NaN
20040330,003855,607125,33.887200,-118.484090,16.122,33.162,NaN,NaN
20040330,003925,607155,33.887400,-118.484500,16.102,33.166,NaN,NaN
20040330,003954,607184,33.887530,-118.484800,16.091,33.166,NaN,NaN
20040330,004025,607215,33.887620,-118.485040,16.095,33.167,NaN,NaN
20040330,004054,607244,33.887690,-118.485200,16.126,33.169,NaN,NaN
20040330,004125,607275,33.887730,-118.485340,16.159,33.168,NaN,NaN
20040330,004155,607305,33.887750,-118.485460,16.152,33.167,NaN,NaN
20040330,004224,607334,33.887750,-118.485560,16.148,33.168,NaN,NaN
20040330,004254,607364,33.887750,-118.485640,16.146,33.168,NaN,NaN
20040330,004325,607395,33.887730,-118.485730,16.148,33.168,NaN,NaN
20040330,004355,607425,33.887720,-118.485850,16.146,33.168,NaN,NaN
20040330,004425,607455,33.887720,-118.485970,16.132,33.167,NaN,NaN
20040330,004455,607485,33.887720,-118.486080,16.114,33.161,NaN,NaN
20040330,004525,607514,33.887720,-118.486180,16.099,33.167,NaN,NaN
20040330,004555,607545,33.887710,-118.486270,16.089,33.167,NaN,NaN
20040330,004625,607575,33.887690,-118.486360,16.083,33.158,NaN,NaN
20040330,004655,607605,33.887670,-118.486440,16.077,33.167,NaN,NaN
20040330,004725,607635,33.887640,-118.486540,16.061,33.153,NaN,NaN
20040330,004755,607665,33.887630,-118.486640,16.037,33.166,NaN,NaN
20040330,004825,607695,33.887610,-118.486730,16.008,33.166,NaN,NaN
20040330,004855,607725,33.887600,-118.486800,15.989,33.166,NaN,NaN
20040330,004925,607755,33.887590,-118.486860,15.977,33.166,NaN,NaN
20040330,004955,607785,33.887580,-118.486920,15.983,33.167,NaN,NaN
20040330,005025,607815,33.887580,-118.486980,15.998,33.168,NaN,NaN
20040330,005055,607844,33.887560,-118.487040,16.002,33.167,NaN,NaN
20040330,005125,607875,33.887530,-118.487090,15.991,33.166,NaN,NaN
20040330,005155,607905,33.887520,-118.487130,15.977,33.166,NaN,NaN
20040330,005225,607935,33.887500,-118.487190,15.964,33.167,NaN,NaN
20040330,005255,607965,33.887490,-118.487270,15.955,33.166,NaN,NaN
20040330,005325,607995,33.887500,-118.487380,15.952,33.167,NaN,NaN
20040330,005355,608024,33.887500,-118.487500,15.950,33.167,NaN,NaN
20040330,005425,608055,33.887510,-118.487590,15.947,33.167,NaN,NaN
20040330,005455,608085,33.887520,-118.487660,15.945,33.167,NaN,NaN
20040330,005525,608115,33.887500,-118.487740,15.947,33.168,NaN,NaN
20040330,005555,608145,33.887480,-118.487790,15.947,33.162,NaN,NaN
20040330,005625,608175,33.887470,-118.487840,15.947,33.168,NaN,NaN
20040330,005655,608205,33.887440,-118.487870,15.983,33.170,NaN,NaN
20040330,005725,608235,33.887420,-118.487910,16.037,33.171,NaN,NaN
20040330,005755,608265,33.887400,-118.487950,16.083,33.172,NaN,NaN
20040330,005825,608295,33.887400,-118.488000,16.154,33.175,NaN,NaN
20040330,005855,608325,33.887390,-118.488060,16.215,33.175,NaN,NaN
20040330,005925,608354,33.887390,-118.488120,16.274,33.177,NaN,NaN
20040330,005955,608385,33.887390,-118.488160,16.372,33.179,NaN,NaN
20040330,010025,608415,33.887390,-118.488200,16.445,33.179,NaN,NaN
20040330,010055,608445,33.887380,-118.488240,16.468,33.178,NaN,NaN
20040330,010125,608475,33.887370,-118.488270,16.452,33.176,NaN,NaN
20040330,010155,608505,33.887370,-118.488300,16.421,33.176,NaN,NaN
20040330,010225,608535,33.887360,-118.488330,16.387,33.175,NaN,NaN
20040330,010255,608565,33.887350,-118.488360,16.363,33.175,NaN,NaN
20040330,010325,608595,33.887340,-118.488390,16.353,33.176,NaN,NaN
20040330,010355,608625,33.887340,-118.488420,16.354,33.176,NaN,NaN
20040330,010425,608655,33.887330,-118.488440,16.351,33.176,NaN,NaN
20040330,010455,608684,33.887320,-118.488470,16.340,33.174,NaN,NaN
20040330,010525,608715,33.887320,-118.488500,16.323,33.176,NaN,NaN
20040330,010555,608745,33.887310,-118.488530,16.313,33.176,NaN,NaN
20040330,010625,608775,33.887300,-118.488550,16.305,33.176,NaN,NaN
20040330,010655,608805,33.887280,-118.488570,16.299,33.176,NaN,NaN
20040330,010725,608835,33.887260,-118.488580,16.290,33.177,NaN,NaN
20040330,010755,608864,33.887260,-118.488590,16.272,33.176,NaN,NaN
20040330,010825,608895,33.887240,-118.488600,16.239,33.173,NaN,NaN
20040330,010855,608925,33.887230,-118.488600,16.208,33.176,NaN,NaN
20040330,010925,608955,33.887220,-118.488620,16.177,33.175,NaN,NaN
20040330,010955,608985,33.887200,-118.488620,16.149,33.163,NaN,NaN
20040330,011025,609015,33.887190,-118.488630,16.116,33.174,NaN,NaN
20040330,011055,609045,33.887170,-118.488630,16.105,33.164,NaN,NaN
20040330,011125,609075,33.887150,-118.488640,16.103,33.176,NaN,NaN
20040330,011155,609105,33.887140,-118.488640,16.097,33.176,NaN,NaN
20040330,011225,609135,33.887120,-118.488650,16.099,33.177,NaN,NaN
20040330,011255,609165,33.887090,-118.488670,16.105,33.177,NaN,NaN
20040330,011325,609194,33.887080,-118.488690,16.108,33.177,NaN,NaN
20040330,011355,609225,33.887060,-118.488700,16.105,33.177,NaN,NaN
20040330,011425,609255,33.887040,-118.488720,16.099,33.177,NaN,NaN
20040330,011455,609285,33.887030,-118.488740,16.088,33.176,NaN,NaN
20040330,011525,609315,33.887020,-118.488750,16.066,33.176,NaN,NaN
20040330,011555,609345,33.887000,-118.488770,16.043,33.176,NaN,NaN
20040330,011625,609374,33.886990,-118.488800,16.024,33.174,NaN,NaN
20040330,011655,609405,33.886990,-118.488870,16.008,33.175,NaN,NaN
20040330,011725,609435,33.886980,-118.488980,15.996,33.175,NaN,NaN
20040330,011755,609465,33.886980,-118.489100,15.990,33.175,NaN,NaN
20040330,011825,609495,33.886990,-118.489240,15.984,33.175,NaN,NaN
20040330,011855,609525,33.886980,-118.489400,15.971,33.175,NaN,NaN
20040330,011925,609555,33.886980,-118.489580,15.962,33.175,NaN,NaN
20040330,011955,609585,33.886980,-118.489770,15.947,33.174,NaN,NaN
20040330,012025,609615,33.886990,-118.489970,15.944,33.176,NaN,NaN
20040330,012055,609645,33.886990,-118.490180,15.956,33.176,NaN,NaN
20040330,012125,609675,33.886990,-118.490390,15.959,33.176,NaN,NaN
20040330,012155,609704,33.886990,-118.490580,15.947,33.174,NaN,NaN
20040330,012225,609735,33.886980,-118.490780,15.913,33.172,NaN,NaN
20040330,012255,609765,33.886980,-118.490960,15.881,33.172,NaN,NaN
20040330,012325,609795,33.886980,-118.491140,15.888,33.174,NaN,NaN
20040330,012355,609825,33.886980,-118.491320,15.879,33.174,NaN,NaN
20040330,012425,609855,33.886980,-118.491500,15.860,33.174,NaN,NaN
20040330,012456,609886,33.886970,-118.491690,15.852,33.169,NaN,NaN
20040330,012526,609916,33.886950,-118.491870,15.857,33.169,NaN,NaN
20040330,012556,609945,33.886960,-118.492030,15.876,33.165,NaN,NaN
20040330,012626,609976,33.886950,-118.492210,15.862,33.162,NaN,NaN
20040330,012656,610006,33.886940,-118.492390,15.841,33.161,NaN,NaN
20040330,012726,610036,33.886930,-118.492560,15.826,33.151,NaN,NaN
20040330,012756,610066,33.886930,-118.492740,15.813,33.165,NaN,NaN
20040330,012826,610096,33.886920,-118.492920,15.784,33.160,NaN,NaN
20040330,012856,610125,33.886900,-118.493100,15.757,33.162,NaN,NaN
20040330,012926,610156,33.886900,-118.493280,15.738,33.167,NaN,NaN
20040330,012956,610186,33.886890,-118.493480,15.738,33.166,NaN,NaN
20040330,013026,610216,33.886870,-118.493670,15.736,33.170,NaN,NaN
20040330,013056,610246,33.886860,-118.493860,15.731,33.171,NaN,NaN
20040330,013126,610276,33.886860,-118.494050,15.725,33.173,NaN,NaN
20040330,013156,610306,33.886840,-118.494240,15.735,33.176,NaN,NaN
20040330,013226,610336,33.886820,-118.494430,15.745,33.175,NaN,NaN
20040330,013256,610366,33.886820,-118.494630,15.726,33.176,NaN,NaN
20040330,013326,610396,33.886820,-118.494820,15.738,33.180,NaN,NaN
20040330,013356,610426,33.886810,-118.495010,15.756,33.179,NaN,NaN
20040330,013426,610455,33.886810,-118.495200,15.737,33.177,NaN,NaN
20040330,013456,610486,33.886800,-118.495400,15.707,33.173,NaN,NaN
20040330,013526,610516,33.886780,-118.495600,15.691,33.170,NaN,NaN
20040330,013556,610546,33.886770,-118.495800,15.668,33.176,NaN,NaN
20040330,013626,610576,33.886740,-118.495990,15.628,33.177,NaN,NaN
20040330,013656,610606,33.886670,-118.496180,15.573,33.176,NaN,NaN
20040330,013726,610635,33.886570,-118.496390,15.548,33.177,NaN,NaN
20040330,013756,610666,33.886410,-118.496600,15.543,33.176,NaN,NaN
20040330,013826,610696,33.886180,-118.496810,15.524,33.167,NaN,NaN
20040330,013856,610726,33.885930,-118.497000,15.492,33.166,NaN,NaN
20040330,013926,610756,33.885660,-118.497210,15.473,33.171,NaN,NaN
20040330,013956,610785,33.885420,-118.497410,15.457,33.175,NaN,NaN
20040330,014026,610816,33.885200,-118.497590,15.492,33.179,NaN,NaN
20040330,014056,610846,33.884990,-118.497760,15.575,33.183,NaN,NaN
20040330,014126,610876,33.884810,-118.497920,15.673,33.186,NaN,NaN
20040330,014156,610906,33.884650,-118.498050,15.770,33.164,NaN,NaN
20040330,014226,610936,33.884500,-118.498170,15.771,33.169,NaN,NaN
20040330,014255,610965,33.884360,-118.498280,15.731,33.174,NaN,NaN
20040330,014325,610995,33.884190,-118.498380,15.733,33.178,NaN,NaN
20040330,014355,611025,33.884010,-118.498520,15.785,33.182,NaN,NaN
20040330,014426,611056,33.883830,-118.498690,15.805,33.184,NaN,NaN
20040330,014456,611086,33.883660,-118.498810,15.795,33.185,NaN,NaN
20040330,014526,611116,33.883510,-118.498920,15.779,33.182,NaN,NaN
20040330,014555,611145,33.883370,-118.499010,15.747,33.185,NaN,NaN
20040330,014626,611176,33.883240,-118.499090,15.812,33.179,NaN,NaN
20040330,014656,611206,33.883130,-118.499150,15.844,33.186,NaN,NaN
20040330,014726,611236,33.883030,-118.499200,15.877,33.187,NaN,NaN
20040330,014757,611267,33.882930,-118.499240,15.938,33.186,NaN,NaN
20040330,014826,611295,33.882840,-118.499270,15.963,33.183,NaN,NaN
20040330,014855,611325,33.882760,-118.499300,15.965,33.183,NaN,NaN
20040330,014926,611356,33.882710,-118.499320,15.969,33.185,NaN,NaN
20040330,014956,611386,33.882660,-118.499350,15.947,33.185,NaN,NaN
20040330,015025,611415,33.882660,-118.499530,15.938,33.187,NaN,NaN
20040330,015055,611445,33.882660,-118.499850,15.983,33.187,NaN,NaN
20040330,015125,611475,33.882550,-118.500310,16.031,33.187,NaN,NaN
20040330,015155,611505,33.882240,-118.500910,16.056,33.186,NaN,NaN
20040330,015225,611535,33.881730,-118.501580,16.077,33.186,NaN,NaN
20040330,015256,611566,33.881230,-118.502350,16.070,33.184,NaN,NaN
20040330,015326,611596,33.880740,-118.503180,16.013,33.184,NaN,NaN
20040330,015356,611626,33.880190,-118.504060,16.016,33.185,NaN,NaN
20040330,015426,611656,33.879610,-118.505030,16.008,33.185,NaN,NaN
20040330,015456,611686,33.878970,-118.506090,15.967,33.183,NaN,NaN
20040330,015526,611716,33.878310,-118.507210,15.921,33.185,NaN,NaN
20040330,015556,611746,33.877620,-118.508370,15.892,33.185,NaN,NaN
20040330,015626,611776,33.876910,-118.509580,15.875,33.187,NaN,NaN
20040330,015656,611805,33.876200,-118.510840,15.882,33.188,NaN,NaN
20040330,015726,611836,33.875440,-118.512140,15.898,33.188,NaN,NaN
20040330,015756,611866,33.874680,-118.513480,15.899,33.188,NaN,NaN
20040330,015826,611896,33.873910,-118.514860,15.869,33.187,NaN,NaN
20040330,015856,611926,33.873100,-118.516210,15.762,33.186,NaN,NaN
20040330,015926,611956,33.872340,-118.517600,15.644,33.186,NaN,NaN
20040330,015955,611985,33.871540,-118.518990,15.527,33.184,NaN,NaN
20040330,020027,612017,33.870720,-118.520420,15.402,33.185,NaN,NaN
20040330,020057,612046,33.869930,-118.521800,15.320,33.187,NaN,NaN
20040330,020127,612077,33.869130,-118.523180,15.256,33.186,NaN,NaN
20040330,020156,612106,33.868350,-118.524530,15.265,33.189,NaN,NaN
20040330,020227,612137,33.867530,-118.525980,15.339,33.188,NaN,NaN
20040330,020256,612166,33.866710,-118.527370,15.330,33.187,NaN,NaN
20040330,020327,612197,33.865900,-118.528760,15.299,33.187,NaN,NaN
20040330,020357,612226,33.865090,-118.530170,15.255,33.187,NaN,NaN
20040330,020427,612257,33.864250,-118.531560,15.223,33.188,NaN,NaN
20040330,020457,612287,33.863440,-118.532940,15.254,33.190,NaN,NaN
20040330,020527,612317,33.862630,-118.534320,15.321,33.189,NaN,NaN
20040330,020557,612347,33.861810,-118.535690,15.366,33.187,NaN,NaN
20040330,020627,612377,33.861000,-118.537060,15.387,33.187,NaN,NaN
20040330,020657,612407,33.860200,-118.538420,15.389,33.187,NaN,NaN
20040330,020727,612437,33.859400,-118.539800,15.358,33.186,NaN,NaN
20040330,020756,612466,33.858570,-118.541160,15.332,33.187,NaN,NaN
20040330,020827,612497,33.857750,-118.542560,15.365,33.189,NaN,NaN
20040330,020857,612527,33.856990,-118.543890,15.422,33.189,NaN,NaN
20040330,020926,612556,33.856250,-118.545270,15.485,33.188,NaN,NaN
20040330,020957,612587,33.855490,-118.546690,15.516,33.187,NaN,NaN
20040330,021027,612617,33.854760,-118.548060,15.519,33.187,NaN,NaN
20040330,021057,612647,33.854030,-118.549410,15.548,33.187,NaN,NaN
20040330,021127,612677,33.853310,-118.550760,15.582,33.187,NaN,NaN
20040330,021157,612707,33.852590,-118.552120,15.665,33.188,NaN,NaN
20040330,021227,612736,33.851870,-118.553460,15.728,33.187,NaN,NaN
20040330,021257,612767,33.851160,-118.554800,15.713,33.185,NaN,NaN
20040330,021327,612797,33.850430,-118.556150,15.711,33.186,NaN,NaN
20040330,021357,612827,33.849710,-118.557510,15.807,33.187,NaN,NaN
20040330,021427,612857,33.849000,-118.558870,15.948,33.186,NaN,NaN
20040330,021457,612887,33.848270,-118.560220,16.070,33.184,NaN,NaN
20040330,021527,612917,33.847560,-118.561570,16.144,33.179,NaN,NaN
20040330,021557,612947,33.846910,-118.562950,16.186,33.176,NaN,NaN
20040330,021627,612977,33.846240,-118.564320,16.218,33.174,NaN,NaN
20040330,021657,613007,33.845570,-118.565680,16.213,33.171,NaN,NaN
20040330,021727,613037,33.844930,-118.567060,16.172,33.170,NaN,NaN
20040330,021757,613066,33.844250,-118.568410,16.134,33.169,NaN,NaN
20040330,021827,613097,33.843590,-118.569780,16.120,33.167,NaN,NaN
20040330,021857,613127,33.842960,-118.571110,16.107,33.165,NaN,NaN
20040330,021927,613157,33.842250,-118.572520,16.073,33.163,NaN,NaN
20040330,021957,613187,33.841620,-118.573890,16.045,33.162,NaN,NaN
20040330,022027,613217,33.841010,-118.575290,16.048,33.161,NaN,NaN
20040330,022057,613247,33.840400,-118.576680,16.084,33.160,NaN,NaN
20040330,022128,613278,33.839750,-118.578100,16.127,33.159,NaN,NaN
20040330,022158,613307,33.839170,-118.579450,16.138,33.157,NaN,NaN
20040330,022228,613338,33.838510,-118.580890,16.123,33.156,NaN,NaN
20040330,022258,613368,33.837930,-118.582250,16.116,33.145,NaN,NaN
20040330,022328,613398,33.837310,-118.583650,16.119,33.157,NaN,NaN
20040330,022358,613428,33.836690,-118.585050,16.126,33.157,NaN,NaN
20040330,022428,613458,33.836090,-118.586460,16.107,33.157,NaN,NaN
20040330,022458,613487,33.835470,-118.587860,16.065,33.156,NaN,NaN
20040330,022528,613518,33.834860,-118.589270,16.016,33.156,NaN,NaN
20040330,022558,613548,33.834260,-118.590680,15.954,33.156,NaN,NaN
20040330,022628,613578,33.833640,-118.592080,15.895,33.156,NaN,NaN
20040330,022658,613608,33.833050,-118.593490,15.867,33.157,NaN,NaN
20040330,022727,613637,33.832430,-118.594890,15.869,33.157,NaN,NaN
20040330,022758,613668,33.831930,-118.596310,15.904,33.158,NaN,NaN
20040330,022828,613698,33.831430,-118.597730,15.946,33.158,NaN,NaN
20040330,022858,613728,33.830930,-118.599160,15.960,33.157,NaN,NaN
20040330,022928,613758,33.830460,-118.600590,15.943,33.156,NaN,NaN
20040330,022957,613787,33.829940,-118.601990,15.926,33.157,NaN,NaN
20040330,023028,613817,33.829450,-118.603480,15.923,33.157,NaN,NaN
20040330,023059,613849,33.828950,-118.604910,15.920,33.157,NaN,NaN
20040330,023128,613878,33.828490,-118.606290,15.923,33.156,NaN,NaN
20040330,023158,613908,33.828010,-118.607710,15.929,33.156,NaN,NaN
20040330,023228,613938,33.827510,-118.609140,15.941,33.157,NaN,NaN
20040330,023259,613969,33.827020,-118.610610,15.986,33.158,NaN,NaN
20040330,023328,613998,33.826670,-118.612030,16.017,33.156,NaN,NaN
20040330,023358,614028,33.826250,-118.613530,16.014,33.156,NaN,NaN
20040330,023429,614058,33.825860,-118.615000,16.035,33.157,NaN,NaN
20040330,023459,614089,33.825480,-118.616460,16.073,33.157,NaN,NaN
20040330,023529,614119,33.825100,-118.617810,16.068,33.156,NaN,NaN
20040330,023559,614149,33.824800,-118.618850,16.071,33.156,NaN,NaN
20040330,023629,614179,33.824570,-118.619680,16.061,33.155,NaN,NaN
20040330,023659,614209,33.824390,-118.620380,16.049,33.155,NaN,NaN
20040330,023729,614238,33.824200,-118.621050,16.048,33.155,NaN,NaN
20040330,023758,614268,33.824010,-118.621720,16.078,33.156,NaN,NaN
20040330,023829,614299,33.823830,-118.622360,16.125,33.155,NaN,NaN
20040330,023859,614329,33.823650,-118.622930,16.162,33.155,NaN,NaN
20040330,023929,614359,33.823490,-118.623320,16.207,33.154,NaN,NaN
20040330,023959,614389,33.823350,-118.623600,16.221,33.154,NaN,NaN
20040330,024029,614419,33.823220,-118.623780,16.242,33.154,NaN,NaN
20040330,024059,614449,33.823100,-118.623910,16.289,33.154,NaN,NaN
20040330,024129,614479,33.823010,-118.624010,16.300,33.152,NaN,NaN
20040330,024159,614509,33.822930,-118.624090,16.289,33.151,NaN,NaN
20040330,024229,614539,33.822860,-118.624130,16.278,33.149,NaN,NaN
20040330,024259,614568,33.822770,-118.624160,16.277,33.143,NaN,NaN
20040330,024329,614599,33.822680,-118.624200,16.276,33.142,NaN,NaN
20040330,024359,614629,33.822580,-118.624260,16.275,33.144,NaN,NaN
20040330,024429,614659,33.822500,-118.624300,16.274,33.146,NaN,NaN
20040330,024459,614689,33.822430,-118.624300,16.264,33.141,NaN,NaN
20040330,024529,614719,33.822350,-118.624290,16.251,33.144,NaN,NaN
20040330,024559,614748,33.822270,-118.624270,16.244,33.147,NaN,NaN
20040330,024629,614779,33.822200,-118.624240,16.242,33.146,NaN,NaN
20040330,024659,614809,33.822100,-118.624230,16.243,33.146,NaN,NaN
20040330,024729,614839,33.821990,-118.624230,16.247,33.144,NaN,NaN
20040330,024759,614869,33.821900,-118.624210,16.256,33.144,NaN,NaN
20040330,024829,614899,33.821810,-118.624180,16.271,33.142,NaN,NaN
20040330,024859,614929,33.821740,-118.624130,16.280,33.144,NaN,NaN
20040330,024929,614959,33.821670,-118.624070,16.282,33.148,NaN,NaN
20040330,024959,614989,33.821620,-118.624000,16.280,33.146,NaN,NaN
20040330,025029,615019,33.821580,-118.623930,16.280,33.147,NaN,NaN
20040330,025059,615049,33.821550,-118.623850,16.272,33.148,NaN,NaN
20040330,025129,615078,33.821520,-118.623760,16.263,33.149,NaN,NaN
20040330,025159,615109,33.821500,-118.623670,16.265,33.150,NaN,NaN
20040330,025229,615139,33.821500,-118.623580,16.274,33.150,NaN,NaN
20040330,025259,615169,33.821500,-118.623520,16.278,33.150,NaN,NaN
20040330,025329,615199,33.821530,-118.623490,16.277,33.149,NaN,NaN
20040330,025359,615229,33.821530,-118.623480,16.276,33.149,NaN,NaN
20040330,025429,615259,33.821490,-118.623470,16.273,33.150,NaN,NaN
20040330,025459,615289,33.821430,-118.623470,16.275,33.151,NaN,NaN
20040330,025529,615319,33.821350,-118.623450,16.278,33.151,NaN,NaN
20040330,025559,615349,33.821260,-118.623400,16.280,33.150,NaN,NaN